Time,TemperatureF,DewpointF,PressureIn,WindDirection,WindDirectionDegrees,WindSpeedMPH,WindSpeedGustMPH,Humidity,HourlyPrecipIn,Conditions,Clouds,dailyrainin,SoftwareType,DateUTC
2013-03-29 00:00:00,43.3,29.5,30.15,NNW,333,3.0,8.0,58,0.00,,BKN070,0.00,VWS V14.00,2013-03-29 04:00:00,
2013-03-29 00:01:00,43.3,29.5,30.15,NNW,333,3.0,8.0,58,0.00,,OVC075,0.00,VWS V14.00,2013-03-29 04:01:00,
2013-03-29 00:05:00,43.3,29.5,30.15,WNW,285,2.0,5.0,58,0.00,,OVC075,0.00,VWS V14.00,2013-03-29 04:05:00,
2013-03-29 00:06:00,43.4,29.6,30.15,North,359,6.0,6.0,58,0.00,,OVC075,0.00,VWS V14.00,2013-03-29 04:06:00,
2013-03-29 00:11:00,43.4,29.6,30.15,NNW,333,2.0,6.0,58,0.00,,OVC075,0.00,VWS V14.00,2013-03-29 04:11:00,
2013-03-29 00:17:00,43.4,29.6,30.15,WNW,300,6.0,9.0,58,0.00,,OVC075,0.00,VWS V14.00,2013-03-29 04:17:00,
2013-03-29 00:22:00,43.5,29.7,30.15,NNW,330,2.0,9.0,58,0.00,,OVC075,0.00,VWS V14.00,2013-03-29 04:22:00,
2013-03-29 00:27:00,43.5,29.7,30.15,NW,323,3.0,9.0,58,0.00,,OVC075,0.00,VWS V14.00,2013-03-29 04:27:00,
2013-03-29 00:30:00,43.5,29.7,30.16,North,351,3.0,9.0,58,0.00,,BKN070,0.00,VWS V14.00,2013-03-29 04:30:00,
2013-03-29 00:33:00,43.4,29.6,30.15,WNW,283,3.0,6.0,58,0.00,,OVC075,0.00,VWS V14.00,2013-03-29 04:33:00,
2013-03-29 00:38:00,43.3,29.5,30.15,NNW,336,3.0,8.0,58,0.00,,OVC075,0.00,VWS V14.00,2013-03-29 04:38:00,
2013-03-29 00:43:00,43.2,29.4,30.15,NW,308,5.0,8.0,58,0.00,,OVC075,0.00,VWS V14.00,2013-03-29 04:43:00,
2013-03-29 00:48:00,43.2,29.4,30.15,NNW,332,3.0,8.0,58,0.00,,OVC075,0.00,VWS V14.00,2013-03-29 04:48:00,
2013-03-29 00:53:00,43.0,29.2,30.15,NW,325,3.0,8.0,58,0.00,,OVC075,0.00,VWS V14.00,2013-03-29 04:53:00,
2013-03-29 00:58:00,42.9,29.2,30.15,NW,316,3.0,8.0,58,0.00,,OVC075,0.00,VWS V14.00,2013-03-29 04:58:00,
2013-03-29 01:00:00,43.0,29.2,30.15,NW,304,5.0,8.0,58,0.00,,BKN070,0.00,VWS V14.00,2013-03-29 05:00:00,
2013-03-29 01:04:00,42.9,29.2,30.15,NW,304,6.0,7.0,58,0.00,,OVC080,0.00,VWS V14.00,2013-03-29 05:04:00,
2013-03-29 01:09:00,42.8,29.5,30.16,NNE,13,4.0,7.0,59,0.00,,OVC080,0.00,VWS V14.00,2013-03-29 05:09:00,
2013-03-29 01:14:00,42.6,29.3,30.16,WNW,297,1.0,7.0,59,0.00,,OVC080,0.00,VWS V14.00,2013-03-29 05:14:00,
2013-03-29 01:19:00,42.4,29.1,30.16,North,8,1.0,7.0,59,0.00,,OVC080,0.00,VWS V14.00,2013-03-29 05:19:00,
2013-03-29 01:24:00,42.1,29.2,30.16,ENE,76,1.0,7.0,60,0.00,,OVC080,0.00,VWS V14.00,2013-03-29 05:24:00,
2013-03-29 01:29:00,41.6,29.2,30.16,NNW,330,0.0,7.0,61,0.00,,OVC080,0.00,VWS V14.00,2013-03-29 05:29:00,
2013-03-29 01:30:00,41.6,29.2,30.16,NNW,330,0.0,7.0,61,0.00,,BKN070,0.00,VWS V14.00,2013-03-29 05:30:00,
2013-03-29 01:35:00,41.4,29.0,30.16,NW,315,0.0,2.0,61,0.00,,OVC080,0.00,VWS V14.00,2013-03-29 05:35:00,
2013-03-29 01:40:00,40.8,28.8,30.16,NW,314,1.0,2.0,62,0.00,,OVC080,0.00,VWS V14.00,2013-03-29 05:40:00,
2013-03-29 01:45:00,39.8,28.6,30.17,SSW,199,1.0,2.0,64,0.00,,OVC080,0.00,VWS V14.00,2013-03-29 05:45:00,
2013-03-29 01:51:00,39.1,28.7,30.17,SSW,196,0.0,2.0,66,0.00,,OVC080,0.00,VWS V14.00,2013-03-29 05:51:00,
2013-03-29 01:56:00,38.5,28.5,30.17,SSW,197,0.0,2.0,67,0.00,,OVC080,0.00,VWS V14.00,2013-03-29 05:56:00,
2013-03-29 02:00:00,38.4,28.8,30.17,SSW,194,0.0,2.0,68,0.00,,BKN070,0.00,VWS V14.00,2013-03-29 06:00:00,
2013-03-29 02:01:00,38.5,28.9,30.17,SSW,194,0.0,0.0,68,0.00,,CLR,0.00,VWS V14.00,2013-03-29 06:01:00,
2013-03-29 02:07:00,38.2,28.6,30.17,SSW,194,0.0,0.0,68,0.00,,CLR,0.00,VWS V14.00,2013-03-29 06:07:00,
2013-03-29 02:12:00,38.1,28.5,30.17,SSW,194,0.0,0.0,68,0.00,,CLR,0.00,VWS V14.00,2013-03-29 06:12:00,
2013-03-29 02:17:00,37.8,28.2,30.17,SSW,194,0.0,1.0,68,0.00,,CLR,0.00,VWS V14.00,2013-03-29 06:17:00,
2013-03-29 02:22:00,37.3,28.1,30.17,SSW,194,0.0,1.0,69,0.00,,CLR,0.00,VWS V14.00,2013-03-29 06:22:00,
2013-03-29 02:27:00,36.9,28.0,30.17,WSW,255,1.0,1.0,70,0.00,,CLR,0.00,VWS V14.00,2013-03-29 06:27:00,
2013-03-29 02:30:00,36.7,28.2,30.17,West,259,0.0,2.0,71,0.00,,BKN070,0.00,VWS V14.00,2013-03-29 06:30:00,
2013-03-29 02:33:00,36.3,27.8,30.17,WSW,258,0.0,1.0,71,0.00,,CLR,0.00,VWS V14.00,2013-03-29 06:33:00,
2013-03-29 02:38:00,36.1,28.0,30.17,West,259,0.0,1.0,72,0.00,,CLR,0.00,VWS V14.00,2013-03-29 06:38:00,
2013-03-29 02:43:00,35.8,28.0,30.17,West,279,0.0,1.0,73,0.00,,CLR,0.00,VWS V14.00,2013-03-29 06:43:00,
2013-03-29 02:48:00,35.7,27.9,30.17,West,280,1.0,1.0,73,0.00,,CLR,0.00,VWS V14.00,2013-03-29 06:48:00,
2013-03-29 02:53:00,35.7,27.9,30.17,West,280,0.0,1.0,73,0.00,,CLR,0.00,VWS V14.00,2013-03-29 06:53:00,
2013-03-29 02:58:00,35.4,27.6,30.17,West,279,0.0,1.0,73,0.00,,CLR,0.00,VWS V14.00,2013-03-29 06:58:00,
2013-03-29 03:00:00,35.3,27.5,30.17,West,280,0.0,1.0,73,0.00,,BKN070,0.00,VWS V14.00,2013-03-29 07:00:00,
2013-03-29 03:03:00,35.1,27.7,30.17,West,280,0.0,0.0,74,0.00,,CLR,0.00,VWS V14.00,2013-03-29 07:03:00,
2013-03-29 03:08:00,34.9,27.8,30.17,West,280,0.0,1.0,75,0.00,,CLR,0.00,VWS V14.00,2013-03-29 07:08:00,
2013-03-29 03:14:00,34.5,27.7,30.17,West,280,0.0,1.0,76,0.00,,CLR,0.00,VWS V14.00,2013-03-29 07:14:00,
2013-03-29 03:19:00,34.4,27.6,30.17,West,280,0.0,1.0,76,0.00,,CLR,0.00,VWS V14.00,2013-03-29 07:19:00,
2013-03-29 03:24:00,34.3,27.5,30.17,West,279,1.0,1.0,76,0.00,,CLR,0.00,VWS V14.00,2013-03-29 07:24:00,
2013-03-29 03:29:00,33.9,27.5,30.17,West,280,0.0,1.0,77,0.00,,CLR,0.00,VWS V14.00,2013-03-29 07:29:00,
2013-03-29 03:30:00,33.9,27.5,30.17,West,280,0.0,1.0,77,0.00,,BKN070,0.00,VWS V14.00,2013-03-29 07:30:00,
2013-03-29 03:34:00,33.6,27.2,30.17,West,279,0.0,1.0,77,0.00,,CLR,0.00,VWS V14.00,2013-03-29 07:34:00,
2013-03-29 03:39:00,33.4,27.3,30.17,West,280,1.0,1.0,78,0.00,,CLR,0.00,VWS V14.00,2013-03-29 07:39:00,
2013-03-29 03:44:00,33.7,27.3,30.17,West,279,1.0,1.0,77,0.00,,CLR,0.00,VWS V14.00,2013-03-29 07:44:00,
2013-03-29 03:49:00,34.0,27.6,30.17,West,280,1.0,2.0,77,0.00,,CLR,0.00,VWS V14.00,2013-03-29 07:49:00,
2013-03-29 03:54:00,33.9,27.1,30.17,West,279,0.0,2.0,76,0.00,,CLR,0.00,VWS V14.00,2013-03-29 07:54:00,
2013-03-29 03:59:00,33.6,27.2,30.17,West,279,1.0,2.0,77,0.00,,CLR,0.00,VWS V14.00,2013-03-29 07:59:00,
2013-03-29 04:00:00,33.6,27.2,30.17,West,279,1.0,2.0,77,0.00,,BKN070,0.00,VWS V14.00,2013-03-29 08:00:00,
2013-03-29 04:05:00,33.2,27.1,30.17,West,280,0.0,1.0,78,0.00,,CLR,0.00,VWS V14.00,2013-03-29 08:05:00,
2013-03-29 04:10:00,32.9,26.8,30.17,West,280,0.0,1.0,78,0.00,,CLR,0.00,VWS V14.00,2013-03-29 08:10:00,
2013-03-29 04:15:00,32.6,26.8,30.17,West,279,0.0,1.0,79,0.00,,CLR,0.00,VWS V14.00,2013-03-29 08:15:00,
2013-03-29 04:20:00,32.1,26.6,30.17,West,279,0.0,1.0,80,0.00,,CLR,0.00,VWS V14.00,2013-03-29 08:20:00,
2013-03-29 04:25:00,31.4,26.2,30.17,West,279,0.0,1.0,81,0.00,,CLR,0.00,VWS V14.00,2013-03-29 08:25:00,
2013-03-29 04:30:00,31.1,26.3,30.17,West,280,0.0,0.0,82,0.00,,CLR,0.00,VWS V14.00,2013-03-29 08:30:00,
2013-03-29 04:35:00,30.9,26.1,30.17,West,279,0.0,1.0,82,0.00,,CLR,0.00,VWS V14.00,2013-03-29 08:35:00,
2013-03-29 04:40:00,30.9,26.1,30.17,West,280,0.0,1.0,82,0.00,,CLR,0.00,VWS V14.00,2013-03-29 08:40:00,
2013-03-29 04:45:00,30.7,26.2,30.17,West,280,0.0,1.0,83,0.00,,CLR,0.00,VWS V14.00,2013-03-29 08:45:00,
2013-03-29 04:51:00,30.5,25.7,30.17,West,279,0.0,1.0,82,0.00,,CLR,0.00,VWS V14.00,2013-03-29 08:51:00,
2013-03-29 04:56:00,30.1,25.6,30.17,West,279,0.0,1.0,83,0.00,,CLR,0.00,VWS V14.00,2013-03-29 08:56:00,
2013-03-29 05:00:00,29.9,25.7,30.17,West,280,0.0,1.0,84,0.00,,BKN070,0.00,VWS V14.00,2013-03-29 09:00:00,
2013-03-29 05:01:00,29.9,25.7,30.17,West,280,0.0,0.0,84,0.00,,CLR,0.00,VWS V14.00,2013-03-29 09:01:00,
2013-03-29 05:07:00,29.9,25.7,30.17,West,280,0.0,1.0,84,0.00,,CLR,0.00,VWS V14.00,2013-03-29 09:07:00,
2013-03-29 05:12:00,30.0,25.8,30.17,West,279,0.0,1.0,84,0.00,,CLR,0.00,VWS V14.00,2013-03-29 09:12:00,
2013-03-29 05:17:00,29.9,25.7,30.17,West,280,0.0,1.0,84,0.00,,CLR,0.00,VWS V14.00,2013-03-29 09:17:00,
2013-03-29 05:22:00,30.0,26.0,30.17,West,280,0.0,1.0,85,0.00,,CLR,0.00,VWS V14.00,2013-03-29 09:22:00,
2013-03-29 05:27:00,30.2,26.2,30.17,West,279,1.0,1.0,85,0.00,,CLR,0.00,VWS V14.00,2013-03-29 09:27:00,
2013-03-29 05:30:00,30.4,26.1,30.17,West,279,0.0,1.0,84,0.00,,BKN070,0.00,VWS V14.00,2013-03-29 09:30:00,
2013-03-29 05:32:00,30.2,26.0,30.17,West,279,0.0,1.0,84,0.00,,CLR,0.00,VWS V14.00,2013-03-29 09:32:00,
2013-03-29 05:38:00,30.0,25.8,30.17,West,280,0.0,1.0,84,0.00,,CLR,0.00,VWS V14.00,2013-03-29 09:38:00,
2013-03-29 05:43:00,29.8,25.6,30.17,West,279,0.0,1.0,84,0.00,,CLR,0.00,VWS V14.00,2013-03-29 09:43:00,
2013-03-29 05:48:00,29.7,25.8,30.17,West,279,0.0,1.0,85,0.00,,CLR,0.00,VWS V14.00,2013-03-29 09:48:00,
2013-03-29 05:53:00,29.5,25.6,30.17,West,279,0.0,1.0,85,0.00,,CLR,0.00,VWS V14.00,2013-03-29 09:53:00,
2013-03-29 05:58:00,29.2,25.3,30.18,West,280,0.0,1.0,85,0.00,,CLR,0.00,VWS V14.00,2013-03-29 09:58:00,
2013-03-29 06:00:00,29.1,25.2,30.18,West,280,0.0,1.0,85,0.00,,BKN070,0.00,VWS V14.00,2013-03-29 10:00:00,
2013-03-29 06:03:00,29.0,25.4,30.18,West,279,0.0,1.0,86,0.00,,CLR,0.00,VWS V14.00,2013-03-29 10:03:00,
2013-03-29 06:08:00,28.9,25.2,30.18,South,169,1.0,1.0,86,0.00,,CLR,0.00,VWS V14.00,2013-03-29 10:08:00,
2013-03-29 06:14:00,28.9,25.5,30.18,South,169,0.0,1.0,87,0.00,,CLR,0.00,VWS V14.00,2013-03-29 10:14:00,
2013-03-29 06:19:00,29.5,26.1,30.18,South,169,0.0,1.0,87,0.00,,CLR,0.00,VWS V14.00,2013-03-29 10:19:00,
2013-03-29 06:24:00,29.7,26.0,30.18,South,169,0.0,1.0,86,0.00,,CLR,0.00,VWS V14.00,2013-03-29 10:24:00,
2013-03-29 06:29:00,29.8,26.1,30.18,South,169,0.0,1.0,86,0.00,,CLR,0.00,VWS V14.00,2013-03-29 10:29:00,
2013-03-29 06:30:00,29.9,26.2,30.18,South,169,0.0,1.0,86,0.00,,BKN070,0.00,VWS V14.00,2013-03-29 10:30:00,
2013-03-29 06:34:00,29.9,26.0,30.18,South,169,0.0,1.0,85,0.00,,CLR,0.00,VWS V14.00,2013-03-29 10:34:00,
2013-03-29 06:40:00,29.9,26.0,30.18,South,169,1.0,1.0,85,0.00,,CLR,0.00,VWS V14.00,2013-03-29 10:40:00,
2013-03-29 06:45:00,30.1,26.1,30.18,SSW,207,1.0,2.0,85,0.00,,CLR,0.00,VWS V14.00,2013-03-29 10:45:00,
2013-03-29 06:50:00,29.9,25.7,30.18,SSW,207,1.0,2.0,84,0.00,,CLR,0.00,VWS V14.00,2013-03-29 10:50:00,
2013-03-29 06:55:00,30.0,26.0,30.19,SSW,207,1.0,2.0,85,0.00,,CLR,0.00,VWS V14.00,2013-03-29 10:55:00,
2013-03-29 07:00:00,30.3,26.1,30.19,SSW,206,0.0,1.0,84,0.00,,CLR,0.00,VWS V14.00,2013-03-29 11:00:00,
2013-03-29 07:06:00,30.4,26.1,30.19,SSW,205,0.0,1.0,84,0.00,,CLR,0.00,VWS V14.00,2013-03-29 11:06:00,
2013-03-29 07:11:00,30.8,26.5,30.19,SSW,205,0.0,1.0,84,0.00,,CLR,0.00,VWS V14.00,2013-03-29 11:11:00,
2013-03-29 07:16:00,31.3,27.0,30.19,SSW,206,0.0,1.0,84,0.00,,CLR,0.00,VWS V14.00,2013-03-29 11:16:00,
2013-03-29 07:22:00,31.9,27.3,30.19,SSE,155,0.0,1.0,83,0.00,,CLR,0.00,VWS V14.00,2013-03-29 11:22:00,
2013-03-29 07:27:00,32.5,27.6,30.19,SSW,205,0.0,2.0,82,0.00,,CLR,0.00,VWS V14.00,2013-03-29 11:27:00,
2013-03-29 07:30:00,32.9,28.0,30.19,SSW,201,1.0,2.0,82,0.00,,BKN070,0.00,VWS V14.00,2013-03-29 11:30:00,
2013-03-29 07:32:00,33.2,28.0,30.19,SSW,203,0.0,1.0,81,0.00,,CLR,0.00,VWS V14.00,2013-03-29 11:32:00,
2013-03-29 07:37:00,34.1,28.6,30.19,SE,141,0.0,1.0,80,0.00,,CLR,0.00,VWS V14.00,2013-03-29 11:37:00,
2013-03-29 07:42:00,35.1,28.6,30.19,South,191,0.0,1.0,77,0.00,,CLR,0.00,VWS V14.00,2013-03-29 11:42:00,
2013-03-29 07:47:00,35.9,29.1,30.19,South,191,0.0,1.0,76,0.00,,CLR,0.00,VWS V14.00,2013-03-29 11:47:00,
2013-03-29 07:53:00,36.9,29.4,30.19,SE,127,0.0,1.0,74,0.00,,CLR,0.00,VWS V14.00,2013-03-29 11:53:00,
2013-03-29 07:58:00,38.1,29.9,30.19,South,190,2.0,2.0,72,0.00,,CLR,0.00,VWS V14.00,2013-03-29 11:58:00,
2013-03-29 08:00:00,38.4,29.8,30.19,SSW,212,2.0,4.0,71,0.00,,BKN070,0.00,VWS V14.00,2013-03-29 12:00:00,
2013-03-29 08:03:00,39.0,30.4,30.19,SE,131,1.0,2.0,71,0.00,,CLR,0.00,VWS V14.00,2013-03-29 12:03:00,
2013-03-29 08:08:00,40.2,30.5,30.20,SE,128,2.0,2.0,68,0.00,,CLR,0.00,VWS V14.00,2013-03-29 12:08:00,
2013-03-29 08:14:00,41.2,30.7,30.20,ESE,120,0.0,3.0,66,0.00,,CLR,0.00,VWS V14.00,2013-03-29 12:14:00,
2013-03-29 08:19:00,42.0,29.9,30.20,WNW,290,0.0,3.0,62,0.00,,CLR,0.00,VWS V14.00,2013-03-29 12:19:00,
2013-03-29 08:24:00,42.7,29.8,30.20,WSW,250,1.0,4.0,60,0.00,,CLR,0.00,VWS V14.00,2013-03-29 12:24:00,
2013-03-29 08:29:00,43.0,30.1,30.20,NW,314,2.0,6.0,60,0.00,,CLR,0.00,VWS V14.00,2013-03-29 12:29:00,
2013-03-29 08:30:00,42.9,30.0,30.20,NNW,341,3.0,6.0,60,0.00,,BKN070,0.00,VWS V14.00,2013-03-29 12:30:00,
2013-03-29 08:34:00,43.3,30.4,30.20,NW,311,4.0,5.0,60,0.00,,CLR,0.00,VWS V14.00,2013-03-29 12:34:00,
2013-03-29 08:40:00,43.2,29.9,30.20,SSE,160,0.0,7.0,59,0.00,,CLR,0.00,VWS V14.00,2013-03-29 12:40:00,
2013-03-29 08:45:00,44.0,30.2,30.20,NW,311,0.0,7.0,58,0.00,,CLR,0.00,VWS V14.00,2013-03-29 12:45:00,
2013-03-29 08:50:00,44.2,30.0,30.20,SW,232,1.0,7.0,57,0.00,,CLR,0.00,VWS V14.00,2013-03-29 12:50:00,
2013-03-29 08:55:00,44.4,29.7,30.20,North,356,1.0,7.0,56,0.00,,CLR,0.00,VWS V14.00,2013-03-29 12:55:00,
2013-03-29 09:00:00,44.7,30.0,30.20,WNW,297,1.0,2.0,56,0.00,,CLR,0.00,VWS V14.00,2013-03-29 13:00:00,
2013-03-29 09:06:00,44.5,29.4,30.20,North,6,2.0,9.0,55,0.00,,CLR,0.00,VWS V14.00,2013-03-29 13:06:00,
2013-03-29 09:12:00,44.9,29.3,30.20,NNW,346,3.0,9.0,54,0.00,,CLR,0.00,VWS V14.00,2013-03-29 13:12:00,
2013-03-29 09:17:00,45.2,29.6,30.20,NNE,19,4.0,9.0,54,0.00,,CLR,0.00,VWS V14.00,2013-03-29 13:17:00,
2013-03-29 09:22:00,45.2,29.6,30.20,North,354,1.0,9.0,54,0.00,,CLR,0.00,VWS V14.00,2013-03-29 13:22:00,
2013-03-29 09:27:00,45.6,29.9,30.19,NE,35,2.0,9.0,54,0.00,,CLR,0.00,VWS V14.00,2013-03-29 13:27:00,
2013-03-29 09:30:00,45.7,29.6,30.19,NW,319,7.0,10.0,53,0.00,,BKN070,0.00,VWS V14.00,2013-03-29 13:30:00,
2013-03-29 09:33:00,45.4,29.3,30.19,NW,325,6.0,9.0,53,0.00,,CLR,0.00,VWS V14.00,2013-03-29 13:33:00,
2013-03-29 09:38:00,45.9,29.8,30.19,NW,322,4.0,9.0,53,0.00,,CLR,0.00,VWS V14.00,2013-03-29 13:38:00,
2013-03-29 09:43:00,46.0,29.4,30.19,NNW,327,7.0,9.0,52,0.00,,CLR,0.00,VWS V14.00,2013-03-29 13:43:00,
2013-03-29 09:48:00,46.4,29.3,30.19,NW,304,6.0,9.0,51,0.00,,CLR,0.00,VWS V14.00,2013-03-29 13:48:00,
2013-03-29 09:53:00,47.3,30.6,30.19,North,8,1.0,9.0,52,0.00,,CLR,0.00,VWS V14.00,2013-03-29 13:53:00,
2013-03-29 09:59:00,47.5,28.8,30.19,NW,326,5.0,10.0,48,0.00,,CLR,0.00,VWS V14.00,2013-03-29 13:59:00,
2013-03-29 10:00:00,47.4,28.7,30.19,NNW,342,4.0,10.0,48,0.00,,BKN070,0.00,VWS V14.00,2013-03-29 14:00:00,
2013-03-29 10:04:00,47.6,29.9,30.19,NNW,329,4.0,8.0,50,0.00,,CLR,0.00,VWS V14.00,2013-03-29 14:04:00,
2013-03-29 10:09:00,47.7,29.0,30.19,NNW,329,5.0,8.0,48,0.00,,CLR,0.00,VWS V14.00,2013-03-29 14:09:00,
2013-03-29 10:14:00,47.8,29.1,30.19,WSW,249,3.0,9.0,48,0.00,,CLR,0.00,VWS V14.00,2013-03-29 14:14:00,
2013-03-29 10:19:00,48.1,29.4,30.19,West,276,3.0,9.0,48,0.00,,CLR,0.00,VWS V14.00,2013-03-29 14:19:00,
2013-03-29 10:24:00,48.5,29.7,30.19,NNW,347,4.0,9.0,48,0.00,,CLR,0.00,VWS V14.00,2013-03-29 14:24:00,
2013-03-29 10:29:00,48.3,28.5,30.19,NW,321,3.0,10.0,46,0.00,,CLR,0.00,VWS V14.00,2013-03-29 14:29:00,
2013-03-29 10:30:00,48.3,28.5,30.19,NW,321,3.0,10.0,46,0.00,,BKN070,0.00,VWS V14.00,2013-03-29 14:30:00,
2013-03-29 10:35:00,48.3,29.0,30.19,NW,319,5.0,12.0,47,0.00,,CLR,0.00,VWS V14.00,2013-03-29 14:35:00,
2013-03-29 10:40:00,48.7,28.3,30.19,WNW,288,2.0,12.0,45,0.00,,CLR,0.00,VWS V14.00,2013-03-29 14:40:00,
2013-03-29 10:45:00,49.6,28.6,30.19,NNE,27,2.0,12.0,44,0.00,,CLR,0.00,VWS V14.00,2013-03-29 14:45:00,
2013-03-29 10:50:00,49.9,28.9,30.19,WNW,285,2.0,12.0,44,0.00,,CLR,0.00,VWS V14.00,2013-03-29 14:50:00,
2013-03-29 10:55:00,50.1,28.5,30.19,West,279,6.0,12.0,43,0.00,,CLR,0.00,VWS V14.00,2013-03-29 14:55:00,
2013-03-29 11:00:00,49.7,28.1,30.19,WNW,285,5.0,6.0,43,0.00,,CLR,0.00,VWS V14.00,2013-03-29 15:00:00,
2013-03-29 11:06:00,49.8,28.2,30.19,NW,313,5.0,7.0,43,0.00,,CLR,0.00,VWS V14.00,2013-03-29 15:06:00,
2013-03-29 11:12:00,50.2,27.4,30.19,North,349,4.0,13.0,41,0.00,,CLR,0.00,VWS V14.00,2013-03-29 15:12:00,
2013-03-29 11:17:00,50.2,28.6,30.18,North,1,4.0,13.0,43,0.00,,CLR,0.00,VWS V14.00,2013-03-29 15:17:00,
2013-03-29 11:22:00,50.1,27.3,30.18,NNW,340,2.0,13.0,41,0.00,,CLR,0.00,VWS V14.00,2013-03-29 15:22:00,
2013-03-29 11:27:00,50.7,29.6,30.18,NNW,336,3.0,13.0,44,0.00,,CLR,0.00,VWS V14.00,2013-03-29 15:27:00,
2013-03-29 11:30:00,50.8,28.5,30.18,NNW,335,8.0,13.0,42,0.00,,BKN070,0.00,VWS V14.00,2013-03-29 15:30:00,
2013-03-29 11:32:00,50.5,28.9,30.18,ESE,119,2.0,8.0,43,0.00,,CLR,0.00,VWS V14.00,2013-03-29 15:32:00,
2013-03-29 11:38:00,51.3,29.6,30.18,NW,311,0.0,8.0,43,0.00,,CLR,0.00,VWS V14.00,2013-03-29 15:38:00,
2013-03-29 11:43:00,52.0,30.2,30.18,WNW,283,4.0,8.0,43,0.00,,CLR,0.00,VWS V14.00,2013-03-29 15:43:00,
2013-03-29 11:48:00,52.3,28.1,30.17,ESE,107,2.0,10.0,39,0.00,,CLR,0.00,VWS V14.00,2013-03-29 15:48:00,
2013-03-29 11:53:00,52.6,27.7,30.18,NW,308,4.0,11.0,38,0.00,,CLR,0.00,VWS V14.00,2013-03-29 15:53:00,
2013-03-29 11:58:00,51.7,26.9,30.17,WNW,297,4.0,11.0,38,0.00,,CLR,0.00,VWS V14.00,2013-03-29 15:58:00,
2013-03-29 12:00:00,51.5,26.8,30.17,NNW,342,4.0,11.0,38,0.00,,BKN070,0.00,VWS V14.00,2013-03-29 16:00:00,
2013-03-29 12:04:00,51.5,27.4,30.17,WNW,289,3.0,5.0,39,0.00,,SCT055,0.00,VWS V14.00,2013-03-29 16:04:00,
2013-03-29 12:09:00,51.4,25.4,30.17,WNW,301,3.0,14.0,36,0.00,,SCT055,0.00,VWS V14.00,2013-03-29 16:09:00,
2013-03-29 12:14:00,51.8,30.0,30.17,SSW,198,3.0,14.0,43,0.00,,SCT055,0.00,VWS V14.00,2013-03-29 16:14:00,
2013-03-29 12:19:00,52.6,28.4,30.16,WNW,302,2.0,14.0,39,0.00,,SCT055,0.00,VWS V14.00,2013-03-29 16:19:00,
2013-03-29 12:24:00,52.7,27.2,30.16,NW,308,3.0,14.0,37,0.00,,SCT055,0.00,VWS V14.00,2013-03-29 16:24:00,
2013-03-29 12:29:00,51.1,27.0,30.16,North,11,4.0,14.0,39,0.00,,SCT055,0.00,VWS V14.00,2013-03-29 16:29:00,
2013-03-29 12:30:00,51.1,27.0,30.16,North,11,4.0,14.0,39,0.00,,BKN070,0.00,VWS V14.00,2013-03-29 16:30:00,
2013-03-29 12:35:00,51.5,28.0,30.16,WSW,248,4.0,7.0,40,0.00,,SCT055,0.00,VWS V14.00,2013-03-29 16:35:00,
2013-03-29 12:40:00,52.0,29.0,30.15,WNW,285,6.0,10.0,41,0.00,,SCT055,0.00,VWS V14.00,2013-03-29 16:40:00,
2013-03-29 12:45:00,52.9,28.6,30.15,West,279,4.0,10.0,39,0.00,,SCT055,0.00,VWS V14.00,2013-03-29 16:45:00,
2013-03-29 12:50:00,52.9,27.4,30.15,WNW,296,1.0,10.0,37,0.00,,SCT055,0.00,VWS V14.00,2013-03-29 16:50:00,
2013-03-29 12:56:00,53.8,27.5,30.15,NNE,15,3.0,10.0,36,0.00,,SCT055,0.00,VWS V14.00,2013-03-29 16:56:00,
2013-03-29 13:00:00,53.1,26.9,30.14,NNW,347,6.0,12.0,36,0.00,,BKN070,0.00,VWS V14.00,2013-03-29 17:00:00,
2013-03-29 13:01:00,52.9,27.4,30.15,NW,314,6.0,9.0,37,0.00,,SCT060,0.00,VWS V14.00,2013-03-29 17:01:00,
2013-03-29 13:06:00,52.2,27.4,30.14,NW,314,10.0,11.0,38,0.00,,SCT060,0.00,VWS V14.00,2013-03-29 17:06:00,
2013-03-29 13:11:00,52.1,27.3,30.14,NNW,333,8.0,11.0,38,0.00,,SCT060,0.00,VWS V14.00,2013-03-29 17:11:00,
2013-03-29 13:16:00,51.4,26.7,30.14,NNW,345,3.0,11.0,38,0.00,,SCT060,0.00,VWS V14.00,2013-03-29 17:16:00,
2013-03-29 13:21:00,52.4,26.9,30.13,WNW,300,1.0,11.0,37,0.00,,SCT060,0.00,VWS V14.00,2013-03-29 17:21:00,
2013-03-29 13:27:00,53.0,26.8,30.13,WNW,301,2.0,13.0,36,0.00,,SCT060,0.00,VWS V14.00,2013-03-29 17:27:00,
2013-03-29 13:30:00,53.3,27.0,30.13,NW,323,5.0,13.0,36,0.00,,BKN070,0.00,VWS V14.00,2013-03-29 17:30:00,
2013-03-29 13:33:00,53.4,27.1,30.13,NNE,31,6.0,12.0,36,0.00,,SCT060,0.00,VWS V14.00,2013-03-29 17:33:00,
2013-03-29 13:38:00,53.4,27.8,30.13,West,278,4.0,14.0,37,0.00,,SCT060,0.00,VWS V14.00,2013-03-29 17:38:00,
2013-03-29 13:43:00,53.9,27.6,30.12,NE,39,6.0,14.0,36,0.00,,SCT060,0.00,VWS V14.00,2013-03-29 17:43:00,
2013-03-29 13:48:00,53.3,27.0,30.12,NNE,20,3.0,14.0,36,0.00,,SCT060,0.00,VWS V14.00,2013-03-29 17:48:00,
2013-03-29 13:53:00,53.2,27.6,30.12,NW,314,2.0,14.0,37,0.00,,SCT060,0.00,VWS V14.00,2013-03-29 17:53:00,
2013-03-29 13:58:00,52.9,26.7,30.12,NNW,330,12.0,14.0,36,0.00,,SCT060,0.00,VWS V14.00,2013-03-29 17:58:00,
2013-03-29 14:00:00,52.8,27.3,30.12,WNW,291,3.0,14.0,37,0.00,,BKN070,0.00,VWS V14.00,2013-03-29 18:00:00,
2013-03-29 14:03:00,52.9,28.0,30.12,NNW,333,8.0,11.0,38,0.00,,BKN060,0.00,VWS V14.00,2013-03-29 18:03:00,
2013-03-29 14:08:00,52.4,26.9,30.12,NNW,344,4.0,11.0,37,0.00,,BKN060,0.00,VWS V14.00,2013-03-29 18:08:00,
2013-03-29 14:14:00,52.6,27.1,30.11,NW,319,2.0,14.0,37,0.00,,BKN060,0.00,VWS V14.00,2013-03-29 18:14:00,
2013-03-29 14:19:00,52.5,27.6,30.11,WNW,287,6.0,14.0,38,0.00,,BKN060,0.00,VWS V14.00,2013-03-29 18:19:00,
2013-03-29 14:24:00,52.4,28.2,30.11,North,1,1.0,14.0,39,0.00,,BKN060,0.00,VWS V14.00,2013-03-29 18:24:00,
2013-03-29 14:29:00,52.9,28.0,30.11,NNW,345,4.0,14.0,38,0.00,,BKN060,0.00,VWS V14.00,2013-03-29 18:29:00,
2013-03-29 14:30:00,52.8,27.9,30.11,NNW,329,3.0,14.0,38,0.00,,BKN070,0.00,VWS V14.00,2013-03-29 18:30:00,
2013-03-29 14:34:00,53.3,28.4,30.11,North,360,3.0,15.0,38,0.00,,BKN060,0.00,VWS V14.00,2013-03-29 18:34:00,
2013-03-29 14:40:00,53.7,28.1,30.11,NNW,333,5.0,15.0,37,0.00,,BKN060,0.00,VWS V14.00,2013-03-29 18:40:00,
2013-03-29 14:45:00,53.6,28.0,30.11,WNW,300,8.0,15.0,37,0.00,,BKN060,0.00,VWS V14.00,2013-03-29 18:45:00,
2013-03-29 14:50:00,54.6,28.9,30.10,NNW,335,5.0,15.0,37,0.00,,BKN060,0.00,VWS V14.00,2013-03-29 18:50:00,
2013-03-29 14:55:00,55.4,28.9,30.10,NNW,337,3.0,15.0,36,0.00,,BKN060,0.00,VWS V14.00,2013-03-29 18:55:00,
2013-03-29 15:00:00,55.7,28.5,30.10,WNW,289,7.0,11.0,35,0.00,,BKN060,0.00,VWS V14.00,2013-03-29 19:00:00,
2013-03-29 15:06:00,55.0,29.2,30.10,NW,318,9.0,11.0,37,0.00,,BKN060,0.00,VWS V14.00,2013-03-29 19:06:00,
2013-03-29 15:11:00,53.8,27.5,30.10,NNW,341,3.0,13.0,36,0.00,,BKN060,0.00,VWS V14.00,2013-03-29 19:11:00,
2013-03-29 15:16:00,53.3,29.0,30.10,NNE,17,5.0,14.0,39,0.00,,BKN060,0.00,VWS V14.00,2013-03-29 19:16:00,
2013-03-29 15:22:00,53.4,29.1,30.10,NNW,334,7.0,15.0,39,0.00,,BKN060,0.00,VWS V14.00,2013-03-29 19:22:00,
2013-03-29 15:27:00,53.2,28.9,30.10,WNW,298,3.0,15.0,39,0.00,,BKN060,0.00,VWS V14.00,2013-03-29 19:27:00,
2013-03-29 15:30:00,53.0,28.7,30.10,NNW,336,2.0,15.0,39,0.00,,BKN070,0.00,VWS V14.00,2013-03-29 19:30:00,
2013-03-29 15:32:00,52.8,28.5,30.11,NW,326,11.0,11.0,39,0.00,,BKN060,0.00,VWS V14.00,2013-03-29 19:32:00,
2013-03-29 15:38:00,52.5,28.9,30.11,North,3,5.0,17.0,40,0.00,,BKN060,0.00,VWS V14.00,2013-03-29 19:38:00,
2013-03-29 15:43:00,52.4,29.4,30.10,WSW,257,2.0,17.0,41,0.00,,BKN060,0.00,VWS V14.00,2013-03-29 19:43:00,
2013-03-29 15:48:00,52.2,29.2,30.11,NW,326,5.0,17.0,41,0.00,,BKN060,0.00,VWS V14.00,2013-03-29 19:48:00,
2013-03-29 15:53:00,52.2,29.2,30.10,NNW,340,3.0,17.0,41,0.00,,BKN060,0.00,VWS V14.00,2013-03-29 19:53:00,
2013-03-29 15:58:00,52.2,29.2,30.10,NW,321,5.0,17.0,41,0.00,,BKN060,0.00,VWS V14.00,2013-03-29 19:58:00,
2013-03-29 16:00:00,52.2,29.2,30.10,North,350,9.0,17.0,41,0.00,,BKN070,0.00,VWS V14.00,2013-03-29 20:00:00,
2013-03-29 16:04:00,52.3,29.3,30.10,NNW,329,4.0,12.0,41,0.00,,OVC080,0.00,VWS V14.00,2013-03-29 20:04:00,
2013-03-29 16:09:00,51.9,29.0,30.10,NNW,340,5.0,12.0,41,0.00,,OVC080,0.00,VWS V14.00,2013-03-29 20:09:00,
2013-03-29 16:14:00,51.6,29.3,30.10,NW,312,2.0,12.0,42,0.00,,OVC080,0.00,VWS V14.00,2013-03-29 20:14:00,
2013-03-29 16:19:00,51.4,29.1,30.10,WNW,302,2.0,12.0,42,0.00,,OVC080,0.00,VWS V14.00,2013-03-29 20:19:00,
2013-03-29 16:24:00,51.5,30.3,30.11,North,359,1.0,12.0,44,0.00,,OVC080,0.00,VWS V14.00,2013-03-29 20:24:00,
2013-03-29 16:29:00,51.5,29.8,30.11,NW,308,2.0,12.0,43,0.00,,OVC080,0.00,VWS V14.00,2013-03-29 20:29:00,
2013-03-29 16:30:00,51.5,29.8,30.11,NW,326,5.0,12.0,43,0.00,,BKN070,0.00,VWS V14.00,2013-03-29 20:30:00,
2013-03-29 16:35:00,51.5,30.3,30.11,NW,315,7.0,13.0,44,0.00,,OVC080,0.00,VWS V14.00,2013-03-29 20:35:00,
2013-03-29 16:40:00,51.7,29.9,30.11,North,358,7.0,13.0,43,0.00,,OVC080,0.00,VWS V14.00,2013-03-29 20:40:00,
2013-03-29 16:45:00,51.7,29.4,30.11,WNW,285,10.0,14.0,42,0.00,,OVC080,0.00,VWS V14.00,2013-03-29 20:45:00,
2013-03-29 16:50:00,51.7,29.4,30.11,NNE,20,4.0,14.0,42,0.00,,OVC080,0.00,VWS V14.00,2013-03-29 20:50:00,
2013-03-29 16:55:00,51.6,29.3,30.11,NW,304,14.0,14.0,42,0.00,,OVC080,0.00,VWS V14.00,2013-03-29 20:55:00,
2013-03-29 17:00:00,51.4,29.7,30.11,NNW,330,5.0,8.0,43,0.00,,OVC080,0.00,VWS V14.00,2013-03-29 21:00:00,
2013-03-29 17:05:00,51.3,29.6,30.11,NW,319,5.0,9.0,43,0.00,,OVC075,0.00,VWS V14.00,2013-03-29 21:05:00,
2013-03-29 17:11:00,51.2,28.9,30.11,NE,42,2.0,13.0,42,0.00,,OVC075,0.00,VWS V14.00,2013-03-29 21:11:00,
2013-03-29 17:17:00,51.2,28.9,30.11,NNW,334,7.0,13.0,42,0.00,,OVC075,0.00,VWS V14.00,2013-03-29 21:17:00,
2013-03-29 17:23:00,51.5,29.8,30.11,NNW,330,1.0,13.0,43,0.00,,OVC075,0.00,VWS V14.00,2013-03-29 21:23:00,
2013-03-29 17:28:00,51.6,29.9,30.11,North,357,1.0,13.0,43,0.00,,OVC075,0.00,VWS V14.00,2013-03-29 21:28:00,
2013-03-29 17:30:00,51.8,29.5,30.11,NNW,345,1.0,13.0,42,0.00,,BKN070,0.00,VWS V14.00,2013-03-29 21:30:00,
2013-03-29 17:33:00,52.1,30.3,30.11,North,360,2.0,5.0,43,0.00,,OVC075,0.00,VWS V14.00,2013-03-29 21:33:00,
2013-03-29 17:38:00,52.1,29.7,30.11,NW,315,4.0,8.0,42,0.00,,OVC075,0.00,VWS V14.00,2013-03-29 21:38:00,
2013-03-29 17:43:00,51.8,30.0,30.11,NNW,340,9.0,9.0,43,0.00,,OVC075,0.00,VWS V14.00,2013-03-29 21:43:00,
2013-03-29 17:48:00,51.7,29.4,30.11,WNW,292,4.0,17.0,42,0.00,,OVC075,0.00,VWS V14.00,2013-03-29 21:48:00,
2013-03-29 17:54:00,51.4,29.7,30.11,NE,44,6.0,17.0,43,0.00,,OVC075,0.00,VWS V14.00,2013-03-29 21:54:00,
2013-03-29 17:59:00,50.8,29.1,30.11,NW,320,3.0,17.0,43,0.00,,OVC075,0.00,VWS V14.00,2013-03-29 21:59:00,
2013-03-29 18:00:00,50.7,29.0,30.11,North,349,4.0,17.0,43,0.00,,BKN070,0.00,VWS V14.00,2013-03-29 22:00:00,
2013-03-29 18:04:00,50.4,28.8,30.11,NNW,333,2.0,8.0,43,0.00,,BKN075,0.00,VWS V14.00,2013-03-29 22:04:00,
2013-03-29 18:09:00,50.1,29.0,30.12,NNW,329,4.0,11.0,44,0.00,,BKN075,0.00,VWS V14.00,2013-03-29 22:09:00,
2013-03-29 18:14:00,49.9,28.9,30.12,NNE,13,2.0,12.0,44,0.00,,BKN075,0.00,VWS V14.00,2013-03-29 22:14:00,
2013-03-29 18:20:00,49.7,28.7,30.12,NW,318,2.0,12.0,44,0.00,,BKN075,0.00,VWS V14.00,2013-03-29 22:20:00,
2013-03-29 18:25:00,49.5,29.1,30.12,NW,326,3.0,12.0,45,0.00,,BKN075,0.00,VWS V14.00,2013-03-29 22:25:00,
2013-03-29 18:30:00,49.4,29.0,30.12,NW,320,3.0,3.0,45,0.00,,BKN075,0.00,VWS V14.00,2013-03-29 22:30:00,
2013-03-29 18:35:00,49.2,28.8,30.12,North,11,3.0,7.0,45,0.00,,BKN075,0.00,VWS V14.00,2013-03-29 22:35:00,
2013-03-29 18:40:00,49.1,29.2,30.12,NNW,338,6.0,9.0,46,0.00,,BKN075,0.00,VWS V14.00,2013-03-29 22:40:00,
2013-03-29 18:45:00,49.2,28.8,30.12,NW,321,4.0,9.0,45,0.00,,BKN075,0.00,VWS V14.00,2013-03-29 22:45:00,
2013-03-29 18:51:00,49.2,29.3,30.12,NNW,339,2.0,9.0,46,0.00,,BKN075,0.00,VWS V14.00,2013-03-29 22:51:00,
2013-03-29 18:56:00,49.2,29.3,30.12,NNE,16,2.0,9.0,46,0.00,,BKN075,0.00,VWS V14.00,2013-03-29 22:56:00,
2013-03-29 19:00:00,49.3,29.4,30.12,NNW,339,2.0,9.0,46,0.00,,BKN070,0.00,VWS V14.00,2013-03-29 23:00:00,
2013-03-29 19:01:00,49.3,29.4,30.12,NW,325,3.0,3.0,46,0.00,,BKN070,0.00,VWS V14.00,2013-03-29 23:01:00,
2013-03-29 19:06:00,49.2,29.3,30.12,NNW,329,2.0,5.0,46,0.00,,BKN070,0.00,VWS V14.00,2013-03-29 23:06:00,
2013-03-29 19:27:00,48.5,29.2,30.13,NW,309,1.0,1.0,47,0.00,,BKN070,0.00,VWS V14.00,2013-03-29 23:27:00,
2013-03-29 19:30:00,48.4,29.1,30.13,NW,308,2.0,5.0,47,0.00,,BKN070,0.00,VWS V14.00,2013-03-29 23:30:00,
2013-03-29 19:32:00,48.4,29.1,30.13,NW,307,2.0,3.0,47,0.00,,BKN070,0.00,VWS V14.00,2013-03-29 23:32:00,
2013-03-29 19:37:00,48.3,29.5,30.13,WNW,291,1.0,3.0,48,0.00,,BKN070,0.00,VWS V14.00,2013-03-29 23:37:00,
2013-03-29 19:54:00,48.1,29.4,30.13,WNW,292,1.0,1.0,48,0.00,,BKN070,0.00,VWS V14.00,2013-03-29 23:54:00,
2013-03-29 19:59:00,47.9,29.2,30.14,NW,305,1.0,5.0,48,0.00,,BKN070,0.00,VWS V14.00,2013-03-29 23:59:00,
2013-03-29 20:00:00,47.9,29.2,30.14,NW,305,1.0,5.0,48,0.00,,CLR,0.00,VWS V14.00,2013-03-30 00:00:00,
2013-03-29 20:05:00,47.5,29.3,30.14,NW,309,1.0,2.0,49,0.00,,CLR,0.00,VWS V14.00,2013-03-30 00:05:00,
2013-03-29 20:10:00,47.2,29.5,30.14,WNW,297,0.0,2.0,50,0.00,,CLR,0.00,VWS V14.00,2013-03-30 00:10:00,
2013-03-29 20:15:00,46.9,29.7,30.14,NNW,328,1.0,2.0,51,0.00,,CLR,0.00,VWS V14.00,2013-03-30 00:15:00,
2013-03-29 20:20:00,46.5,29.8,30.14,NNW,333,2.0,3.0,52,0.00,,CLR,0.00,VWS V14.00,2013-03-30 00:20:00,
2013-03-29 20:26:00,46.3,30.1,30.14,NW,325,0.0,3.0,53,0.00,,CLR,0.00,VWS V14.00,2013-03-30 00:26:00,
2013-03-29 20:30:00,46.1,30.4,30.15,NW,326,1.0,3.0,54,0.00,,CLR,0.00,VWS V14.00,2013-03-30 00:30:00,
2013-03-29 20:31:00,46.1,30.4,30.15,NW,326,0.0,1.0,54,0.00,,CLR,0.00,VWS V14.00,2013-03-30 00:31:00,
2013-03-29 20:37:00,45.9,30.7,30.15,WNW,288,0.0,1.0,55,0.00,,CLR,0.00,VWS V14.00,2013-03-30 00:37:00,
2013-03-29 20:42:00,45.7,30.5,30.15,WNW,289,1.0,1.0,55,0.00,,CLR,0.00,VWS V14.00,2013-03-30 00:42:00,
2013-03-29 20:47:00,45.2,30.0,30.15,WNW,288,0.0,1.0,55,0.00,,CLR,0.00,VWS V14.00,2013-03-30 00:47:00,
2013-03-29 20:52:00,44.7,30.0,30.15,WNW,288,0.0,1.0,56,0.00,,CLR,0.00,VWS V14.00,2013-03-30 00:52:00,
2013-03-29 20:57:00,44.2,30.0,30.15,WNW,288,0.0,1.0,57,0.00,,CLR,0.00,VWS V14.00,2013-03-30 00:57:00,
2013-03-29 21:00:00,44.1,29.9,30.15,WNW,288,0.0,1.0,57,0.00,,CLR,0.00,VWS V14.00,2013-03-30 01:00:00,
2013-03-29 21:03:00,43.9,30.1,30.15,WNW,288,0.0,1.0,58,0.00,,BKN100,0.00,VWS V14.00,2013-03-30 01:03:00,
2013-03-29 21:08:00,43.6,30.2,30.16,WNW,288,1.0,1.0,59,0.00,,BKN100,0.00,VWS V14.00,2013-03-30 01:08:00,
2013-03-29 21:13:00,43.6,30.2,30.16,WNW,288,1.0,1.0,59,0.00,,BKN100,0.00,VWS V14.00,2013-03-30 01:13:00,
2013-03-29 21:18:00,43.8,30.4,30.16,WNW,288,1.0,1.0,59,0.00,,BKN100,0.00,VWS V14.00,2013-03-30 01:18:00,
2013-03-29 21:23:00,43.9,30.9,30.16,WNW,288,1.0,1.0,60,0.00,,BKN100,0.00,VWS V14.00,2013-03-30 01:23:00,
2013-03-29 21:28:00,43.8,30.8,30.16,WNW,288,0.0,1.0,60,0.00,,BKN100,0.00,VWS V14.00,2013-03-30 01:28:00,
2013-03-29 21:30:00,43.8,30.8,30.16,WNW,288,1.0,1.0,60,0.00,,CLR,0.00,VWS V14.00,2013-03-30 01:30:00,
2013-03-29 21:34:00,43.9,30.9,30.16,WNW,288,2.0,2.0,60,0.00,,BKN100,0.00,VWS V14.00,2013-03-30 01:34:00,
2013-03-29 21:39:00,44.0,31.0,30.16,WNW,288,1.0,2.0,60,0.00,,BKN100,0.00,VWS V14.00,2013-03-30 01:39:00,
2013-03-29 21:44:00,44.3,31.3,30.16,WNW,297,1.0,2.0,60,0.00,,BKN100,0.00,VWS V14.00,2013-03-30 01:44:00,
2013-03-29 21:50:00,44.2,31.2,30.16,NW,304,1.0,2.0,60,0.00,,BKN100,0.00,VWS V14.00,2013-03-30 01:50:00,
2013-03-29 21:55:00,44.1,31.1,30.17,WNW,296,1.0,4.0,60,0.00,,BKN100,0.00,VWS V14.00,2013-03-30 01:55:00,
2013-03-29 22:00:00,44.1,31.1,30.17,NW,309,2.0,3.0,60,0.00,,BKN100,0.00,VWS V14.00,2013-03-30 02:00:00,
2013-03-29 22:05:00,44.0,31.0,30.17,NW,308,2.0,4.0,60,0.00,,OVC100,0.00,VWS V14.00,2013-03-30 02:05:00,
2013-03-29 22:10:00,44.2,31.2,30.17,WNW,303,3.0,4.0,60,0.00,,OVC100,0.00,VWS V14.00,2013-03-30 02:10:00,
2013-03-29 22:15:00,44.4,31.4,30.17,NW,307,3.0,4.0,60,0.00,,OVC100,0.00,VWS V14.00,2013-03-30 02:15:00,
2013-03-29 22:21:00,44.6,31.6,30.17,NNW,329,2.0,4.0,60,0.00,,OVC100,0.00,VWS V14.00,2013-03-30 02:21:00,
2013-03-29 22:26:00,44.7,31.7,30.17,NW,308,1.0,7.0,60,0.00,,OVC100,0.00,VWS V14.00,2013-03-30 02:26:00,
2013-03-29 22:30:00,44.7,31.7,30.17,NNW,334,3.0,7.0,60,0.00,,CLR,0.00,VWS V14.00,2013-03-30 02:30:00,
2013-03-29 22:31:00,44.7,31.7,30.17,NW,323,1.0,3.0,60,0.00,,OVC100,0.00,VWS V14.00,2013-03-30 02:31:00,
2013-03-29 22:36:00,44.8,31.4,30.17,NW,308,3.0,4.0,59,0.00,,OVC100,0.00,VWS V14.00,2013-03-30 02:36:00,
2013-03-29 22:41:00,44.9,31.5,30.17,NW,309,3.0,6.0,59,0.00,,OVC100,0.00,VWS V14.00,2013-03-30 02:41:00,
2013-03-29 22:46:00,44.9,31.5,30.17,NNW,340,3.0,6.0,59,0.00,,OVC100,0.00,VWS V14.00,2013-03-30 02:46:00,
2013-03-29 22:52:00,44.9,31.5,30.17,North,1,3.0,6.0,59,0.00,,OVC100,0.00,VWS V14.00,2013-03-30 02:52:00,
2013-03-29 22:57:00,44.9,31.5,30.17,NW,326,1.0,6.0,59,0.00,,OVC100,0.00,VWS V14.00,2013-03-30 02:57:00,
2013-03-29 23:00:00,44.7,31.3,30.17,NNW,334,1.0,6.0,59,0.00,,CLR,0.00,VWS V14.00,2013-03-30 03:00:00,
2013-03-29 23:02:00,44.6,31.2,30.17,NW,308,2.0,3.0,59,0.00,,OVC100,0.00,VWS V14.00,2013-03-30 03:02:00,
2013-03-29 23:07:00,44.3,31.3,30.17,WNW,300,2.0,3.0,60,0.00,,OVC100,0.00,VWS V14.00,2013-03-30 03:07:00,
2013-03-29 23:12:00,44.1,31.1,30.17,NW,315,2.0,3.0,60,0.00,,OVC100,0.00,VWS V14.00,2013-03-30 03:12:00,
2013-03-29 23:18:00,43.9,31.3,30.17,NW,308,3.0,3.0,61,0.00,,OVC100,0.00,VWS V14.00,2013-03-30 03:18:00,
2013-03-29 23:23:00,43.8,31.2,30.17,WNW,301,1.0,5.0,61,0.00,,OVC100,0.00,VWS V14.00,2013-03-30 03:23:00,
2013-03-29 23:28:00,43.5,31.0,30.17,NNW,330,1.0,5.0,61,0.00,,OVC100,0.00,VWS V14.00,2013-03-30 03:28:00,
2013-03-29 23:30:00,43.4,30.9,30.17,NNW,330,0.0,5.0,61,0.00,,CLR,0.00,VWS V14.00,2013-03-30 03:30:00,
2013-03-29 23:34:00,43.2,31.1,30.17,WNW,293,0.0,2.0,62,0.00,,OVC100,0.00,VWS V14.00,2013-03-30 03:34:00,
2013-03-29 23:39:00,42.7,31.0,30.17,North,352,0.0,2.0,63,0.00,,OVC100,0.00,VWS V14.00,2013-03-30 03:39:00,
2013-03-29 23:44:00,42.4,30.7,30.17,NNW,340,1.0,2.0,63,0.00,,OVC100,0.00,VWS V14.00,2013-03-30 03:44:00,
2013-03-29 23:49:00,42.3,31.0,30.17,WNW,297,0.0,2.0,64,0.00,,OVC100,0.00,VWS V14.00,2013-03-30 03:49:00,
2013-03-29 23:54:00,42.3,31.0,30.17,NW,315,2.0,2.0,64,0.00,,OVC100,0.00,VWS V14.00,2013-03-30 03:54:00,